This is the latest recevied weather packets stored in our database for station/object TA3HRJ-12. If no packets are shown the sender has not sent any weather packets the latest 10 day(s).
| Time | Temp. | Humidity | Pressure | Rain* | Wind** | Luminosity | Snow |
|---|---|---|---|---|---|---|---|
| 1777613070 | 26.67° C | 23% | 1023.6 hPa | - | - | - | - |
| 1777612170 | 25.56° C | 23% | 1023.7 hPa | - | - | - | - |
| 1777611270 | 23.89° C | 26% | 1023.7 hPa | - | - | - | - |
| 1777610370 | 23.33° C | 27% | 1023.7 hPa | - | - | - | - |
| 1777609470 | 22.78° C | 28% | 1023.7 hPa | - | - | - | - |
| 1777608570 | 22.78° C | 27% | 1023.8 hPa | - | - | - | - |
| 1777607670 | 22.22° C | 26% | 1023.8 hPa | - | - | - | - |
| 1777606770 | 20.56° C | 29% | 1023.9 hPa | - | - | - | - |
| 1777605870 | 20° C | 30% | 1023.9 hPa | - | - | - | - |
| 1777604969 | 20° C | 31% | 1023.8 hPa | - | - | - | - |
| 1777604069 | 20.56° C | 30% | 1023.8 hPa | - | - | - | - |
| 1777603169 | 21.11° C | 30% | 1023.9 hPa | - | - | - | - |
| 1777602269 | 21.11° C | 29% | 1024 hPa | - | - | - | - |
| 1777601369 | 21.11° C | 29% | 1024.2 hPa | - | - | - | - |
| 1777600469 | 20.56° C | 29% | 1024.2 hPa | - | - | - | - |
| 1777599569 | 20° C | 30% | 1024.2 hPa | - | - | - | - |
| 1777598669 | 20° C | 31% | 1024.4 hPa | - | - | - | - |
| 1777597769 | 18.89° C | 34% | 1024.5 hPa | - | - | - | - |
| 1777596868 | 18.89° C | 33% | 1024.4 hPa | - | - | - | - |
| 1777595968 | 20.56° C | 30% | 1024.4 hPa | - | - | - | - |
| 1777595068 | 20° C | 30% | 1024.6 hPa | - | - | - | - |
| 1777594168 | 20.56° C | 29% | 1024.5 hPa | - | - | - | - |
| 1777593268 | 22.22° C | 26% | 1024.6 hPa | - | - | - | - |
| 1777592368 | 22.78° C | 26% | 1024.7 hPa | - | - | - | - |
| 1777591468 | 21.11° C | 27% | 1024.9 hPa | - | - | - | - |
* Rain since midnight (hover to see other rain measurements)
** Current wind speed in m/s (hover to see current wind gust speed)